AirNav   Everest Fuels
 
 1029 users online  

DE26 Christiana Hospital Heliport
Newark, Delaware, USA

GOING TO NEWARK?


FAA INFORMATION EFFECTIVE 30 JANUARY 2020

Location

FAA Identifier: DE26
Lat/Long: 39-41-14.1100N 075-40-00.7300W
39-41.235167N 075-40.012167W
39.6872528,-75.6668694
(estimated)
Elevation: 89 ft. / 27 m (estimated)
Variation: 12W (1995)
From city: 3 miles W of NEWARK, DE
Time zone: UTC -5 (UTC -4 during Daylight Saving Time)
Zip code: 19713

Heliport Operations

Heliport use: Private use, MEDICAL USE.
Activation date: 01/1996
Control tower: no
ARTCC: NEW YORK CENTER
FSS: MILLVILLE FLIGHT SERVICE STATION
Attendance: CONTINUOUS
Wind indicator: yes
Segmented circle: no
Lights: FOR PERIMETER LGTS CALL 302-733-3782.

Heliport Communications

WX ASOS at ILG (2.8 nm E): PHONE 302-328-1536
WX AWOS-3 at EVY (10 nm S): 132.325 (302-378-2063)
WX AWOS-3T at OQN (19 nm N): 121.4 ((610) 692-6190)
WX AWOS-3 at MQS (20 nm NW): 126.25 (610-384-6132)

Nearby radio navigation aids

VOR radial/distance  VOR name  Freq  Var
DQOr291/2.8DUPONT VORTAC114.0010W
MXEr188/13.8MODENA VORTAC113.2009W
OODr290/17.1WOODSTOWN VORTAC112.8010W
ENOr355/28.2SMYRNA VORTAC111.4009W
PTWr198/32.5POTTSTOWN VORTAC116.5009W
VCNr296/33.6CEDAR LAKE VOR/DME115.2010W
LRPr141/38.7LANCASTER VOR/DME117.3009W

 
NDB name  Hdg/Dist  Freq  Var  ID
HADIN349/6.824810WIL .. .-..
RAINBOW314/29.436311WRNB .-. -. -...
AMBLER226/31.627512WING .. -. --.

Heliport Services

Runway Information

Helipad H1

Dimensions: 120 x 60 ft. / 37 x 18 m
Surface: concrete
Runway edge lights: PERI
Latitude: 39-41.256667N
Longitude: 075-40.029833W
Elevation: 89.0 ft.
Traffic pattern: leftleft

Helipad H3

Dimensions: 80 x 50 ft. / 24 x 15 m
Surface: asphalt/concrete
Latitude: 39-41.210833N
Longitude: 075-39.996833W
Elevation: 89.0 ft.
Traffic pattern: leftleft

Helipad H2

Dimensions: 50 x 50 ft. / 15 x 15 m
Surface: asphalt/concrete
Latitude: 39-41.251000N
Longitude: 075-40.021167W
Elevation: 89.0 ft.
Traffic pattern: leftleft

Heliport Ownership and Management from official FAA records

Ownership: Privately-owned
Owner: CHRISTIANA CARE HLTH SVCS INC
4755 OGLETOWN-STANTON ROAD
NEWARK, DE 19718
Phone 302-733-1000
Manager: JEFFERY BENYO
4755 OGLETOWN-STANTON ROAD
NEWARK, DE 19718
Phone (302) 733-5958
302-733-3788

Heliport Operational Statistics

Aircraft based on the field: 1
Helicopters: 1
    

Additional Remarks

FOR CD CTC PHILADELPHIA APCH AT 800-354-9884.

Instrument Procedures

There are no published instrument procedures at DE26.

Some nearby airports with instrument procedures:

KILG - New Castle Airport (3 nm E)
N57 - New Garden Airport (10 nm NW)
KEVY - Summit Airport (10 nm S)
58M - Claremont Airport (12 nm SW)
7N7 - Spitfire Aerodrome (13 nm E)
KOQN - Brandywine Regional Airport (19 nm N)
KMQS - Chester County G O Carlson Airport (20 nm NW)
 
Loc | Ops | Rwys | IFR | FBO | Links
Com | Nav | Svcs | Stats | Notes
Area around DE26 (Christiana Hospital Heliport)
 
Road maps at: MapQuest Bing Google
 
Aerial photo
No photo
 
Sectional chart

 
Airport distance calculator
Flying to Christiana Hospital Heliport? Find the distance to fly.

From to DE26

Sunrise and sunset
Times for 23-Feb-2020
 Local
(UTC-5)
 Zulu
(UTC)
Morning civil twilight06:1811:18
Sunrise06:4511:45
Sunset17:4722:47
Evening civil twilight18:1423:14

Current date and time
Zulu (UTC)  23-Feb-2020 18:03:35
Local (UTC-5)  23-Feb-2020 13:03:35
 
METAR
KILG 
3nm E 
231751Z 16007KT 10SM CLR 13/M10 A3019 RMK AO2 SLP224 T01281100 10128 21039 58024
KOQN 
19nm N 
231755Z AUTO 22006KT 10SM CLR 12/M13 A3017 RMK AO2
KMQS 
20nm NW 
231755Z AUTO 23007KT 190V270 10SM CLR 11/M12 A3018 RMK AO2
TAF
KILG 
3nm E 
231133Z 2312/2412 23005KT P6SM SKC FM232200 20006KT P6SM FEW150 FM240200 VRB04KT P6SM FEW080 FEW250
NOTAMs
Click for the latest NOTAMs
NOTAMs are issued by the DoD/FAA and will open in a separate window not controlled by AirNav.

 

 
 

Would you like to see your business listed on this page?

 If your business provides an interesting product or service to pilots, flight crews, aircraft, or users of the Christiana Hospital Heliport, you should consider listing it here.  To start the listing process, click on the button below
 
Add a business
 

Other Pages about Christiana Hospital Heliport

Update a link
 
Copyright © AirNav, LLC. All rights reserved. Privacy Policy  Contact